| time (UTC) | temp F | wind direction | speed MPH | gust MPH | rain 1hr in | rain 24hr in | rain mn in | humidity % | barometer mb |
| 20260831131353 | 61 | 239 | 13.0 | 15.0 | 0.00 | 0.00 | 0.00 | 82 | |
| 20260831130358 | 61 | 231 | 13.0 | 14.0 | 0.00 | 0.00 | 0.00 | 81 | |
| 20260831125857 | 61 | 250 | 11.0 | 10.0 | 0.00 | 0.00 | 0.00 | 80 | |
| 20260831125359 | 61 | 235 | 13.0 | 13.0 | 0.00 | 0.00 | 0.00 | 79 | |
| 20260831124902 | 62 | 242 | 11.0 | 12.0 | 0.00 | 0.00 | 0.00 | 78 | |
| 20260831124404 | 62 | 232 | 11.0 | 10.0 | 0.00 | 0.00 | 0.00 | 76 | |
| 20260831123906 | 62 | 236 | 11.0 | 10.0 | 0.00 | 0.00 | 0.00 | 75 | |
| 20260831123409 | 62 | 238 | 12.0 | 9.0 | 0.00 | 0.00 | 0.00 | 73 | |
| 20260831122908 | 62 | 233 | 13.0 | 12.0 | 0.00 | 0.00 | 0.00 | 72 | |
| 20260831122410 | 62 | 221 | 12.0 | 16.0 | 0.00 | 0.00 | 0.00 | 70 | |
| 20260831121912 | 62 | 221 | 11.0 | 12.0 | 0.00 | 0.00 | 0.00 | 69 | |
| 20260831121415 | 62 | 239 | 11.0 | 7.0 | 0.00 | 0.00 | 0.00 | 66 | |
| 20260831120917 | 63 | 222 | 14.0 | 11.0 | 0.00 | 0.00 | 0.00 | 65 | |
| 20260831120419 | 63 | 212 | 11.0 | 16.0 | 0.00 | 0.00 | 0.00 | 62 | |
| 20260831115918 | 63 | 207 | 11.0 | 17.0 | 0.00 | 0.00 | 0.00 | 62 | |
| 20260831115421 | 63 | 212 | 15.0 | 13.0 | 0.00 | 0.00 | 0.00 | 62 | |
| 20260831114923 | 63 | 214 | 12.0 | 13.0 | 0.00 | 0.00 | 0.00 | 60 | |
| 20260831114425 | 63 | 217 | 15.0 | 17.0 | 0.00 | 0.00 | 0.00 | 60 | |
| 20260831113927 | 63 | 198 | 13.0 | 9.0 | 0.00 | 0.00 | 0.00 | 61 | |
| 20260831113430 | 63 | 205 | 14.0 | 14.0 | 0.00 | 0.00 | 0.00 | 60 | |
| 20260831112929 | 63 | 211 | 14.0 | 18.0 | 0.00 | 0.00 | 0.00 | 60 | |
| 20260831112431 | 63 | 211 | 13.0 | 8.0 | 0.00 | 0.00 | 0.00 | 62 | |
| 20260831111934 | 63 | 210 | 12.0 | 11.0 | 0.00 | 0.00 | 0.00 | 63 | |
| 20260831111436 | 63 | 212 | 9.0 | 10.0 | 0.00 | 0.00 | 0.00 | 63 | |
| 20260831110938 | 63 | 205 | 6.0 | 9.0 | 0.00 | 0.00 | 0.00 | 62 | |
| 20260831110442 | 63 | 232 | 9.0 | 6.0 | 0.00 | 0.00 | 0.00 | 60 | |
| 20260831105940 | 63 | 207 | 10.0 | 8.0 | 0.00 | 0.00 | 0.00 | 60 | |
| 20260831105444 | 63 | 11.0 | 8.0 | 0.00 | 0.00 | 0.00 | 61 | ||
| 20260831105442 | 63 | 243 | 11.0 | 8.0 | 0.00 | 0.00 | 0.00 | 61 | |
| 20260831104944 | 63 | 194 | 10.0 | 8.0 | 0.00 | 0.00 | 0.00 | 61 | |
| 20260831104446 | 63 | 239 | 9.0 | 6.0 | 0.00 | 0.00 | 0.00 | 60 | |
| 20260831103949 | 63 | 238 | 8.0 | 6.0 | 0.00 | 0.00 | 0.00 | 59 | |
| 20260831103451 | 63 | 221 | 11.0 | 12.0 | 0.00 | 0.00 | 0.00 | 57 | |
| 20260831102950 | 64 | 233 | 9.0 | 9.0 | 0.00 | 0.00 | 0.00 | 56 | |
| 20260831102452 | 64 | 194 | 11.0 | 16.0 | 0.00 | 0.00 | 0.00 | 54 | |
| 20260831101955 | 64 | 228 | 11.0 | 13.0 | 0.00 | 0.00 | 0.00 | 52 | |
| 20260831101457 | 65 | 207 | 12.0 | 13.0 | 0.00 | 0.00 | 0.00 | 49 | |
| 20260831101000 | 65 | 219 | 12.0 | 15.0 | 0.00 | 0.00 | 0.00 | 47 | |
| 20260831100959 | 65 | 219 | 12.0 | 15.0 | 0.00 | 0.00 | 0.00 | 47 | |
| 20260831100502 | 65 | 193 | 13.0 | 15.0 | 0.00 | 0.00 | 0.00 | 46 | |
| 20260831100001 | 65 | 187 | 14.0 | 12.0 | 0.00 | 0.00 | 0.00 | 45 | |
| 20260831095503 | 65 | 173 | 12.0 | 11.0 | 0.00 | 0.00 | 0.00 | 44 | |
| 20260831095005 | 65 | 203 | 14.0 | 16.0 | 0.00 | 0.00 | 0.00 | 43 | |
| 20260831094507 | 65 | 217 | 13.0 | 14.0 | 0.00 | 0.00 | 0.00 | 42 | |
| 20260831094009 | 65 | 225 | 14.0 | 11.0 | 0.00 | 0.00 | 0.00 | 41 | |
| 20260831093511 | 65 | 195 | 13.0 | 8.0 | 0.00 | 0.00 | 0.00 | 41 | |
| 20260831093010 | 65 | 207 | 13.0 | 19.0 | 0.00 | 0.00 | 0.00 | 42 | |
| 20260831092513 | 65 | 195 | 13.0 | 14.0 | 0.00 | 0.00 | 0.00 | 42 | |
| 20260831092015 | 65 | 214 | 13.0 | 10.0 | 0.00 | 0.00 | 0.00 | 43 | |
| 20260831091517 | 65 | 204 | 13.0 | 11.0 | 0.00 | 0.00 | 0.00 | 44 | |
| 20260831091020 | 65 | 214 | 10.0 | 9.0 | 0.00 | 0.00 | 0.00 | 44 | |
| 20260831090522 | 65 | 222 | 12.0 | 14.0 | 0.00 | 0.00 | 0.00 | 45 | |
| 20260831090021 | 64 | 204 | 13.0 | 8.0 | 0.00 | 0.00 | 0.00 | 46 | |
| 20260831085523 | 64 | 170 | 13.0 | 8.0 | 0.00 | 0.00 | 0.00 | 48 | |
| 20260831085026 | 64 | 224 | 13.0 | 15.0 | 0.00 | 0.00 | 0.00 | 51 | |
| 20260831084528 | 64 | 228 | 11.0 | 9.0 | 0.00 | 0.00 | 0.00 | 54 | |
| 20260831084030 | 64 | 217 | 12.0 | 11.0 | 0.00 | 0.00 | 0.00 | 56 | |
| 20260831083533 | 64 | 200 | 14.0 | 13.0 | 0.00 | 0.00 | 0.00 | 59 | |
| 20260831083032 | 64 | 228 | 12.0 | 11.0 | 0.00 | 0.00 | 0.00 | 63 | |
| 20260831082036 | 64 | 179 | 11.0 | 13.0 | 0.00 | 0.00 | 0.00 | 68 | |
| 20260831081538 | 64 | 201 | 13.0 | 13.0 | 0.00 | 0.00 | 0.00 | 69 | |
| 20260831081041 | 64 | 215 | 11.0 | 10.0 | 0.00 | 0.00 | 0.00 | 69 | |
| 20260831080543 | 64 | 198 | 12.0 | 10.0 | 0.00 | 0.00 | 0.00 | 69 | |
| 20260831080042 | 64 | 214 | 9.0 | 11.0 | 0.00 | 0.00 | 0.00 | 69 | |
| 20260831075544 | 64 | 228 | 10.0 | 13.0 | 0.00 | 0.00 | 0.00 | 69 | |
| 20260831075047 | 64 | 232 | 12.0 | 11.0 | 0.00 | 0.00 | 0.00 | 70 | |
| 20260831074549 | 64 | 225 | 12.0 | 12.0 | 0.00 | 0.00 | 0.00 | 70 | |
| 20260831074052 | 64 | 184 | 11.0 | 8.0 | 0.00 | 0.00 | 0.00 | 71 | |
| 20260831073554 | 64 | 208 | 12.0 | 8.0 | 0.00 | 0.00 | 0.00 | 72 | |
| 20260831073054 | 64 | 204 | 12.0 | 10.0 | 0.00 | 0.00 | 0.00 | 73 | |
| 20260831072555 | 64 | 170 | 9.0 | 8.0 | 0.00 | 0.00 | 0.00 | 74 | |
| 20260831072057 | 64 | 204 | 10.0 | 10.0 | 0.00 | 0.00 | 0.00 | 74 | |
| 20260831071600 | 64 | 191 | 9.0 | 9.0 | 0.00 | 0.00 | 0.00 | 74 | |
| 20260831071102 | 64 | 224 | 12.0 | 10.0 | 0.00 | 0.00 | 0.00 | 75 | |
| 20260831070604 | 64 | 224 | 10.0 | 8.0 | 0.00 | 0.00 | 0.00 | 75 | |
| 20260831070103 | 64 | 217 | 11.0 | 11.0 | 0.00 | 0.00 | 0.00 | 75 | |
| 20260831065606 | 65 | 211 | 11.0 | 12.0 | 0.00 | 0.00 | 0.00 | 75 | |
| 20260831065108 | 64 | 219 | 10.0 | 10.0 | 0.00 | 0.00 | 0.00 | 75 | |
| 20260831064610 | 64 | 198 | 11.0 | 12.0 | 0.00 | 0.00 | 0.00 | 74 | |
| 20260831064112 | 64 | 215 | 10.0 | 9.0 | 0.00 | 0.00 | 0.00 | 74 | |
| 20260831063615 | 65 | 217 | 10.0 | 9.0 | 0.00 | 0.00 | 0.00 | 73 | |
| 20260831063149 | 65 | 205 | 12.0 | 14.0 | 0.00 | 0.00 | 0.00 | 73 | |
| 20260831063114 | 65 | 205 | 12.0 | 14.0 | 0.00 | 0.00 | 0.00 | 73 | |
| 20260831062714 | 65 | 207 | 11.0 | 14.0 | 0.00 | 0.00 | 0.00 | 72 | |
| 20260831062616 | 65 | 207 | 11.0 | 14.0 | 0.00 | 0.00 | 0.00 | 72 | |
| 20260831062118 | 65 | 194 | 13.0 | 14.0 | 0.00 | 0.00 | 0.00 | 70 | |
| 20260831061621 | 65 | 194 | 12.0 | 12.0 | 0.00 | 0.00 | 0.00 | 67 | |
| 20260831061123 | 66 | 240 | 12.0 | 7.0 | 0.00 | 0.00 | 0.00 | 64 | |
| 20260831060625 | 66 | 240 | 13.0 | 8.0 | 0.00 | 0.00 | 0.00 | 60 | |
| 20260831060125 | 66 | 217 | 11.0 | 14.0 | 0.00 | 0.00 | 0.00 | 57 | |
| 20260831055627 | 67 | 214 | 11.0 | 9.0 | 0.00 | 0.00 | 0.00 | 53 | |
| 20260831055129 | 67 | 200 | 11.0 | 14.0 | 0.00 | 0.00 | 0.00 | 48 | |
| 20260831054631 | 68 | 207 | 10.0 | 9.0 | 0.00 | 0.00 | 0.00 | 45 | |
| 20260831054133 | 69 | 212 | 12.0 | 16.0 | 0.00 | 0.00 | 0.00 | 40 | |
| 20260831053636 | 70 | 208 | 11.0 | 12.0 | 0.00 | 0.00 | 0.00 | 35 | |
| 20260831053135 | 70 | 228 | 11.0 | 12.0 | 0.00 | 0.00 | 0.00 | 30 | |
| 20260831052637 | 71 | 194 | 10.0 | 9.0 | 0.00 | 0.00 | 0.00 | 24 | |
| 20260831052140 | 71 | 156 | 12.0 | 10.0 | 0.00 | 0.00 | 0.00 | 23 | |
| 20260831051642 | 71 | 174 | 15.0 | 12.0 | 0.00 | 0.00 | 0.00 | 23 | |
| 20260831051144 | 72 | 155 | 14.0 | 18.0 | 0.00 | 0.00 | 0.00 | 22 | |
| 20260831050145 | 72 | 195 | 14.0 | 14.0 | 0.00 | 0.00 | 0.00 | 21 | |
| 20260831045648 | 72 | 177 | 13.0 | 11.0 | 0.00 | 0.00 | 0.00 | 21 | |
| 20260831044652 | 71 | 177 | 16.0 | 17.0 | 0.00 | 0.00 | 0.00 | 22 | |
| 20260831044154 | 71 | 183 | 17.0 | 20.0 | 0.00 | 0.00 | 0.00 | 23 | |
| 20260831043657 | 71 | 186 | 19.0 | 17.0 | 0.00 | 0.00 | 0.00 | 24 | |
| 20260831043156 | 71 | 159 | 17.0 | 19.0 | 0.00 | 0.00 | 0.00 | 24 | |
| 20260831042200 | 71 | 176 | 18.0 | 18.0 | 0.00 | 0.00 | 0.00 | 24 | |
| 20260831041703 | 71 | 180 | 15.0 | 15.0 | 0.00 | 0.00 | 0.00 | 24 | |
| 20260831041205 | 71 | 172 | 16.0 | 19.0 | 0.00 | 0.00 | 0.00 | 25 | |
| 20260831040707 | 71 | 177 | 14.0 | 12.0 | 0.00 | 0.00 | 0.00 | 25 | |
| 20260831040206 | 72 | 159 | 14.0 | 15.0 | 0.00 | 0.00 | 0.00 | 24 | |
| 20260831035709 | 72 | 160 | 12.0 | 12.0 | 0.00 | 0.00 | 0.00 | 23 | |
| 20260831035211 | 73 | 174 | 12.0 | 11.0 | 0.00 | 0.00 | 0.00 | 22 | |
| 20260831034713 | 74 | 160 | 10.0 | 11.0 | 0.00 | 0.00 | 0.00 | 20 | |
| 20260831034215 | 74 | 156 | 7.0 | 7.0 | 0.00 | 0.00 | 0.00 | 17 | |
| 20260831033718 | 75 | 173 | 9.0 | 10.0 | 0.00 | 0.00 | 0.00 | 14 | |
| 20260831033217 | 75 | 195 | 9.0 | 9.0 | 0.00 | 0.00 | 0.00 | 14 | |
| 20260831032719 | 75 | 181 | 11.0 | 11.0 | 0.00 | 0.00 | 0.00 | 14 | |
| 20260831032221 | 76 | 190 | 13.0 | 14.0 | 0.00 | 0.00 | 0.00 | 14 | |
| 20260831031724 | 76 | 186 | 12.0 | 12.0 | 0.00 | 0.00 | 0.00 | 13 | |
| 20260831031226 | 76 | 176 | 13.0 | 15.0 | 0.00 | 0.00 | 0.00 | 13 | |
| 20260831030728 | 76 | 184 | 17.0 | 19.0 | 0.00 | 0.00 | 0.00 | 12 | |
| 20260831030227 | 76 | 197 | 12.0 | 11.0 | 0.00 | 0.00 | 0.00 | 12 | |
| 20260831025232 | 77 | 191 | 9.0 | 9.0 | 0.00 | 0.00 | 0.00 | 9 | |
| 20260831024734 | 77 | 191 | 11.0 | 13.0 | 0.00 | 0.00 | 0.00 | 8 | |
| 20260831023739 | 77 | 190 | 11.0 | 9.0 | 0.00 | 0.00 | 0.00 | 9 | |
| 20260831023238 | 77 | 204 | 11.0 | 8.0 | 0.00 | 0.00 | 0.00 | 8 | |
| 20260831022741 | 78 | 201 | 11.0 | 0.0 | 0.00 | 0.00 | 0.00 | 8 | |
| 20260831022243 | 78 | 207 | 16.0 | 0.0 | 0.00 | 0.00 | 0.00 | 7 | |
| 20260831021745 | 78 | 208 | 15.0 | 13.0 | 0.00 | 0.00 | 0.00 | 6 | |
| 20260831021247 | 79 | 204 | 10.0 | 13.0 | 0.00 | 0.00 | 0.00 | 6 | |
| 20260831020749 | 79 | 215 | 17.0 | 8.0 | 0.00 | 0.00 | 0.00 | 6 | |
| 20260831020248 | 79 | 214 | 16.0 | 16.0 | 0.00 | 0.00 | 0.00 | 6 | |
| 20260831015750 | 79 | 203 | 14.0 | 10.0 | 0.00 | 0.00 | 0.00 | 6 | |
| 20260831015253 | 80 | 183 | 16.0 | 12.0 | 0.00 | 0.00 | 0.00 | 6 | |
| 20260831014755 | 80 | 204 | 14.0 | 17.0 | 0.00 | 0.00 | 0.00 | 6 | |
| 20260831014257 | 80 | 197 | 15.0 | 17.0 | 0.00 | 0.00 | 0.00 | 6 | |
| 20260831013800 | 80 | 222 | 18.0 | 23.0 | 0.00 | 0.00 | 0.00 | 6 | |
| 20260831013259 | 80 | 198 | 18.0 | 20.0 | 0.00 | 0.00 | 0.00 | 6 | |
| 20260831012801 | 81 | 195 | 17.0 | 18.0 | 0.00 | 0.00 | 0.00 | 6 | |
| 20260831012305 | 81 | 203 | 16.0 | 17.0 | 0.00 | 0.00 | 0.00 | 6 | |
| 20260831011805 | 81 | 176 | 12.0 | 7.0 | 0.00 | 0.00 | 0.00 | 6 | |
| 20260831011308 | 81 | 204 | 14.0 | 18.0 | 0.00 | 0.00 | 0.00 | 7 | |
| 20260831010810 | 82 | 217 | 13.0 | 20.0 | 0.00 | 0.00 | 0.00 | 6 | |
| 20260831010309 | 82 | 212 | 18.0 | 18.0 | 0.00 | 0.00 | 0.00 | 6 | |
| 20260831005811 | 82 | 201 | 13.0 | 16.0 | 0.00 | 0.00 | 0.00 | 6 | |
| 20260831005314 | 82 | 190 | 15.0 | 12.0 | 0.00 | 0.00 | 0.00 | 7 | |
| 20260831004816 | 82 | 210 | 12.0 | 14.0 | 0.00 | 0.00 | 0.00 | 7 | |
| 20260831004415 | 82 | 198 | 15.0 | 19.0 | 0.00 | 0.00 | 0.00 | 8 | |
| 20260831004318 | 82 | 198 | 15.0 | 19.0 | 0.00 | 0.00 | 0.00 | 8 | |
| 20260831003820 | 82 | 176 | 15.0 | 13.0 | 0.00 | 0.00 | 0.00 | 8 | |
| 20260831003319 | 83 | 194 | 15.0 | 22.0 | 0.00 | 0.00 | 0.00 | 7 | |
| 20260831002822 | 82 | 180 | 19.0 | 14.0 | 0.00 | 0.00 | 0.00 | 7 | |
| 20260831002324 | 83 | 210 | 17.0 | 18.0 | 0.00 | 0.00 | 0.00 | 7 | |
| 20260831001826 | 83 | 169 | 19.0 | 16.0 | 0.00 | 0.00 | 0.00 | 7 | |
| 20260831001329 | 82 | 190 | 18.0 | 17.0 | 0.00 | 0.00 | 0.00 | 7 | |
| 20260831000831 | 83 | 181 | 20.0 | 19.0 | 0.00 | 0.00 | 0.00 | 7 | |
| 20260831000332 | 83 | 190 | 22.0 | 21.0 | 0.00 | 0.00 | 0.00 | 7 | |
| 20260830235832 | 83 | 197 | 21.0 | 21.0 | 0.00 | 0.00 | 0.00 | 7 | |
| 20260830235334 | 83 | 201 | 21.0 | 24.0 | 0.00 | 0.00 | 0.00 | 7 | |
| 20260830234339 | 83 | 203 | 19.0 | 17.0 | 0.00 | 0.00 | 0.00 | 6 | |
| 20260830233841 | 84 | 195 | 22.0 | 28.0 | 0.00 | 0.00 | 0.00 | 6 | |
| 20260830233340 | 84 | 169 | 16.0 | 22.0 | 0.00 | 0.00 | 0.00 | 6 | |
| 20260830232843 | 84 | 188 | 22.0 | 19.0 | 0.00 | 0.00 | 0.00 | 5 | |
| 20260830232345 | 84 | 191 | 18.0 | 15.0 | 0.00 | 0.00 | 0.00 | 5 | |
| 20260830231848 | 85 | 180 | 20.0 | 23.0 | 0.00 | 0.00 | 0.00 | 5 | |
| 20260830231349 | 85 | 191 | 18.0 | 21.0 | 0.00 | 0.00 | 0.00 | 5 | |
| 20260830230852 | 85 | 187 | 24.0 | 23.0 | 0.00 | 0.00 | 0.00 | 5 | |
| 20260830230351 | 85 | 177 | 16.0 | 16.0 | 0.00 | 0.00 | 0.00 | 4 | |
| 20260830225853 | 85 | 200 | 20.0 | 25.0 | 0.00 | 0.00 | 0.00 | 5 | |
| 20260830225355 | 85 | 190 | 20.0 | 18.0 | 0.00 | 0.00 | 0.00 | 5 | |
| 20260830224858 | 85 | 160 | 15.0 | 20.0 | 0.00 | 0.00 | 0.00 | 6 | |
| 20260830224453 | 85 | 207 | 15.0 | 11.0 | 0.00 | 0.00 | 0.00 | 5 | |
| 20260830224400 | 85 | 207 | 15.0 | 11.0 | 0.00 | 0.00 | 0.00 | 5 | |
| 20260830223902 | 85 | 173 | 18.0 | 18.0 | 0.00 | 0.00 | 0.00 | 6 | |
| 20260830223401 | 85 | 176 | 19.0 | 22.0 | 0.00 | 0.00 | 0.00 | 6 | |
| 20260830222903 | 85 | 200 | 16.0 | 19.0 | 0.00 | 0.00 | 0.00 | 6 | |
| 20260830222406 | 85 | 194 | 22.0 | 27.0 | 0.00 | 0.00 | 0.00 | 5 | |
| 20260830221908 | 85 | 180 | 19.0 | 20.0 | 0.00 | 0.00 | 0.00 | 6 | |
| 20260830220913 | 85 | 190 | 17.0 | 15.0 | 0.00 | 0.00 | 0.00 | 7 | |
| 20260830215914 | 85 | 194 | 24.0 | 28.0 | 0.00 | 0.00 | 0.00 | 7 | |
| 20260830215416 | 85 | 187 | 23.0 | 23.0 | 0.00 | 0.00 | 0.00 | 8 | |
| 20260830214918 | 85 | 194 | 19.0 | 21.0 | 0.00 | 0.00 | 0.00 | 6 | |
| 20260830214422 | 85 | 190 | 16.0 | 17.0 | 0.00 | 0.00 | 0.00 | 8 | |
| 20260830213923 | 85 | 172 | 22.0 | 24.0 | 0.00 | 0.00 | 0.00 | 6 | |
| 20260830213423 | 85 | 186 | 23.0 | 23.0 | 0.00 | 0.00 | 0.00 | 6 | |
| 20260830212924 | 85 | 187 | 22.0 | 31.0 | 0.00 | 0.00 | 0.00 | 8 | |
| 20260830212427 | 85 | 184 | 22.0 | 21.0 | 0.00 | 0.00 | 0.00 | 8 | |
| 20260830211431 | 85 | 170 | 17.0 | 14.0 | 0.00 | 0.00 | 0.00 | 6 | |
| 20260830210934 | 86 | 187 | 21.0 | 20.0 | 0.00 | 0.00 | 0.00 | 6 | |
| 20260830210433 | 86 | 219 | 17.0 | 13.0 | 0.00 | 0.00 | 0.00 | 6 | |
| 20260830205935 | 85 | 181 | 20.0 | 16.0 | 0.00 | 0.00 | 0.00 | 7 | |
| 20260830205437 | 86 | 170 | 18.0 | 18.0 | 0.00 | 0.00 | 0.00 | 7 | |
| 20260830204939 | 86 | 174 | 20.0 | 20.0 | 0.00 | 0.00 | 0.00 | 7 | |
| 20260830204442 | 86 | 184 | 22.0 | 12.0 | 0.00 | 0.00 | 0.00 | 6 | |
| 20260830203944 | 86 | 167 | 16.0 | 17.0 | 0.00 | 0.00 | 0.00 | 7 | |
| 20260830203443 | 86 | 188 | 12.0 | 24.0 | 0.00 | 0.00 | 0.00 | 7 | |
| 20260830202945 | 86 | 187 | 21.0 | 16.0 | 0.00 | 0.00 | 0.00 | 6 | |
| 20260830202448 | 86 | 190 | 18.0 | 25.0 | 0.00 | 0.00 | 0.00 | 6 | |
| 20260830201950 | 87 | 179 | 18.0 | 14.0 | 0.00 | 0.00 | 0.00 | 6 | |
| 20260830201452 | 87 | 207 | 15.0 | 15.0 | 0.00 | 0.00 | 0.00 | 5 | |
| 20260830200453 | 86 | 193 | 20.0 | 20.0 | 0.00 | 0.00 | 0.00 | 6 | |
| 20260830195956 | 86 | 190 | 18.0 | 14.0 | 0.00 | 0.00 | 0.00 | 6 | |
| 20260830195458 | 87 | 208 | 17.0 | 18.0 | 0.00 | 0.00 | 0.00 | 6 | |
| 20260830195000 | 87 | 207 | 13.0 | 9.0 | 0.00 | 0.00 | 0.00 | 6 | |
| 20260830194503 | 87 | 191 | 14.0 | 15.0 | 0.00 | 0.00 | 0.00 | 6 | |
| 20260830194005 | 87 | 194 | 13.0 | 13.0 | 0.00 | 0.00 | 0.00 | 6 | |
| 20260830193504 | 88 | 201 | 9.0 | 13.0 | 0.00 | 0.00 | 0.00 | 6 | |
| 20260830193006 | 88 | 219 | 13.0 | 13.0 | 0.00 | 0.00 | 0.00 | 6 | |
| 20260830192011 | 88 | 195 | 12.0 | 13.0 | 0.00 | 0.00 | 0.00 | 6 | |
| 20260830191609 | 88 | 215 | 10.0 | 9.0 | 0.00 | 0.00 | 0.00 | 6 | |
| 20260830191513 | 88 | 215 | 10.0 | 9.0 | 0.00 | 0.00 | 0.00 | 6 | |
| 20260830191015 | 88 | 245 | 7.0 | 10.0 | 0.00 | 0.00 | 0.00 | 6 | |
| 20260830190514 | 88 | 203 | 13.0 | 10.0 | 0.00 | 0.00 | 0.00 | 6 | |
| 20260830190017 | 87 | 222 | 7.0 | 8.0 | 0.00 | 0.00 | 0.00 | 5 | |
| 20260830185519 | 87 | 238 | 10.0 | 18.0 | 0.00 | 0.00 | 0.00 | 7 | |
| 20260830185021 | 87 | 219 | 11.0 | 12.0 | 0.00 | 0.00 | 0.00 | 7 | |
| 20260830184524 | 87 | 205 | 8.0 | 7.0 | 0.00 | 0.00 | 0.00 | 7 | |
| 20260830184026 | 86 | 233 | 10.0 | 10.0 | 0.00 | 0.00 | 0.00 | 8 | |
| 20260830183526 | 86 | 198 | 11.0 | 7.0 | 0.00 | 0.00 | 0.00 | 8 | |
| 20260830183027 | 86 | 238 | 10.0 | 11.0 | 0.00 | 0.00 | 0.00 | 8 | |
| 20260830182530 | 86 | 229 | 11.0 | 13.0 | 0.00 | 0.00 | 0.00 | 8 | |
| 20260830182032 | 86 | 248 | 10.0 | 11.0 | 0.00 | 0.00 | 0.00 | 9 | |
| 20260830181534 | 85 | 222 | 9.0 | 14.0 | 0.00 | 0.00 | 0.00 | 7 | |
| 20260830181037 | 85 | 253 | 11.0 | 9.0 | 0.00 | 0.00 | 0.00 | 9 | |
| 20260830180536 | 85 | 249 | 10.0 | 15.0 | 0.00 | 0.00 | 0.00 | 10 | |
| 20260830180038 | 84 | 232 | 10.0 | 12.0 | 0.00 | 0.00 | 0.00 | 10 | |
| 20260830175540 | 84 | 228 | 12.0 | 15.0 | 0.00 | 0.00 | 0.00 | 10 | |
| 20260830175043 | 84 | 243 | 11.0 | 13.0 | 0.00 | 0.00 | 0.00 | 11 | |
| 20260830174545 | 84 | 233 | 12.0 | 14.0 | 0.00 | 0.00 | 0.00 | 11 | |
| 20260830174047 | 83 | 232 | 14.0 | 13.0 | 0.00 | 0.00 | 0.00 | 11 | |
| 20260830173546 | 83 | 211 | 11.0 | 11.0 | 0.00 | 0.00 | 0.00 | 11 | |
| 20260830173049 | 83 | 232 | 11.0 | 13.0 | 0.00 | 0.00 | 0.00 | 12 | |
| 20260830172551 | 83 | 222 | 11.0 | 12.0 | 0.00 | 0.00 | 0.00 | 12 | |
| 20260830172053 | 82 | 231 | 11.0 | 16.0 | 0.00 | 0.00 | 0.00 | 12 | |
| 20260830171556 | 82 | 214 | 9.0 | 10.0 | 0.00 | 0.00 | 0.00 | 13 | |
| 20260830171058 | 81 | 240 | 11.0 | 11.0 | 0.00 | 0.00 | 0.00 | 13 | |
| 20260830170557 | 81 | 221 | 14.0 | 14.0 | 0.00 | 0.00 | 0.00 | 14 | |
| 20260830170059 | 80 | 222 | 10.0 | 5.0 | 0.00 | 0.00 | 0.00 | 15 | |
| 20260830165602 | 80 | 221 | 11.0 | 8.0 | 0.00 | 0.00 | 0.00 | 16 | |
| 20260830165104 | 80 | 233 | 11.0 | 12.0 | 0.00 | 0.00 | 0.00 | 17 | |
| 20260830164607 | 80 | 205 | 9.0 | 10.0 | 0.00 | 0.00 | 0.00 | 18 | |
| 20260830164109 | 79 | 239 | 14.0 | 13.0 | 0.00 | 0.00 | 0.00 | 18 | |
| 20260830163608 | 79 | 219 | 14.0 | 18.0 | 0.00 | 0.00 | 0.00 | 19 | |
| 20260830163110 | 78 | 205 | 15.0 | 12.0 | 0.00 | 0.00 | 0.00 | 20 | |
| 20260830162612 | 78 | 235 | 12.0 | 14.0 | 0.00 | 0.00 | 0.00 | 21 | |
| 20260830162115 | 77 | 228 | 14.0 | 13.0 | 0.00 | 0.00 | 0.00 | 22 | |
| 20260830161617 | 77 | 191 | 12.0 | 10.0 | 0.00 | 0.00 | 0.00 | 23 | |
| 20260830161119 | 77 | 231 | 13.0 | 16.0 | 0.00 | 0.00 | 0.00 | 24 | |
| 20260830160618 | 77 | 231 | 13.0 | 16.0 | 0.00 | 0.00 | 0.00 | 25 | |
| 20260830160121 | 76 | 233 | 14.0 | 14.0 | 0.00 | 0.00 | 0.00 | 26 | |
| 20260830155623 | 76 | 207 | 11.0 | 10.0 | 0.00 | 0.00 | 0.00 | 28 | |
| 20260830155125 | 75 | 229 | 9.0 | 12.0 | 0.00 | 0.00 | 0.00 | 28 | |
| 20260830154628 | 75 | 235 | 12.0 | 9.0 | 0.00 | 0.00 | 0.00 | 29 | |
| 20260830154130 | 74 | 218 | 9.0 | 9.0 | 0.00 | 0.00 | 0.00 | 30 | |
| 20260830153629 | 74 | 219 | 11.0 | 5.0 | 0.00 | 0.00 | 0.00 | 31 | |
| 20260830153131 | 73 | 212 | 7.0 | 14.0 | 0.00 | 0.00 | 0.00 | 32 | |
| 20260830152634 | 73 | 190 | 12.0 | 6.0 | 0.00 | 0.00 | 0.00 | 33 | |
| 20260830152136 | 72 | 177 | 10.0 | 11.0 | 0.00 | 0.00 | 0.00 | 35 | |
| 20260830151638 | 72 | 288 | 12.0 | 6.0 | 0.00 | 0.00 | 0.00 | 37 | |
| 20260830151141 | 71 | 225 | 12.0 | 9.0 | 0.00 | 0.00 | 0.00 | 38 | |
| 20260830150640 | 70 | 222 | 11.0 | 14.0 | 0.00 | 0.00 | 0.00 | 40 | |
| 20260830150142 | 69 | 211 | 10.0 | 10.0 | 0.00 | 0.00 | 0.00 | 42 | |
| 20260830145644 | 69 | 226 | 11.0 | 9.0 | 0.00 | 0.00 | 0.00 | 43 | |
| 20260830145147 | 68 | 222 | 13.0 | 14.0 | 0.00 | 0.00 | 0.00 | 44 | |
| 20260830144649 | 68 | 219 | 11.0 | 13.0 | 0.00 | 0.00 | 0.00 | 46 | |
| 20260830144151 | 68 | 194 | 9.0 | 10.0 | 0.00 | 0.00 | 0.00 | 47 | |
| 20260830143650 | 68 | 226 | 10.0 | 10.0 | 0.00 | 0.00 | 0.00 | 48 | |
| 20260830143153 | 68 | 248 | 8.0 | 8.0 | 0.00 | 0.00 | 0.00 | 49 | |
| 20260830142655 | 67 | 217 | 7.0 | 6.0 | 0.00 | 0.00 | 0.00 | 48 | |
| 20260830142157 | 67 | 217 | 5.0 | 6.0 | 0.00 | 0.00 | 0.00 | 48 | |
| 20260830141700 | 67 | 187 | 9.0 | 9.0 | 0.00 | 0.00 | 0.00 | 49 | |
| 20260830141202 | 67 | 211 | 9.0 | 7.0 | 0.00 | 0.00 | 0.00 | 49 | |
| 20260830140701 | 67 | 235 | 5.0 | 6.0 | 0.00 | 0.00 | 0.00 | 49 | |
| 20260830140203 | 67 | 212 | 9.0 | 8.0 | 0.00 | 0.00 | 0.00 | 49 | |
| 20260830135706 | 67 | 214 | 9.0 | 8.0 | 0.00 | 0.00 | 0.00 | 49 | |
| 20260830135208 | 67 | 200 | 8.0 | 10.0 | 0.00 | 0.00 | 0.00 | 49 | |
| 20260830134711 | 0 | 221 | 8.0 | 11.0 | 0.00 | 0.00 | 0.00 | 49 | |
| 20260830134213 | 66 | 235 | 8.0 | 7.0 | 0.00 | 0.00 | 0.00 | 49 | |
| 20260830133712 | 66 | 210 | 5.0 | 9.0 | 0.00 | 0.00 | 0.00 | 50 | |
| 20260830133214 | 66 | 214 | 7.0 | 9.0 | 0.00 | 0.00 | 0.00 | 50 | |
| 20260830132716 | 66 | 239 | 7.0 | 6.0 | 0.00 | 0.00 | 0.00 | 49 | |
| 20260830132219 | 66 | 218 | 8.0 | 7.0 | 0.00 | 0.00 | 0.00 | 49 |